Location: Fort Worth, Tx
(32.7431°N, 97.3695°W)
Time: 19:27:37
(UTC-04:00)

Vanguard 1 Rocket - Pass Details

Date: 15 September 2024
Orbit: 650 x 4218 km, 34.3° (Epoch: 11 October)

Event Time Altitude Azimuth Distance (km) Brightness Sun altitude
Exits shadow 06:12:35 36° 242° (WSW) 3,504 9.7 -25.6°
Maximum altitude 06:21:13 82° 159° (SSE) 3,186 10.0 -23.9°
Drops below altitude 10° 06:46:20 10° 77° (ENE) 7,400 13.3 -18.9°
Sets 06:52:21 0° 77° (ENE) 8,460 14.1 -17.6°
